Weather History for YBAS - February, 2013

Change the Weather History Date:

Wednesday, February 6, 2013

  Actual Average Record
Temperature  
Mean Temperature 82 °F -  
Max Temperature 101 °F 94 °F 105 °F (2009)
Min Temperature 62 °F 68 °F 57 °F (2012)
Cooling Degree Days 16    
Growing Degree Days 32 (Base 50)    
Moisture  
Dew Point 26 °F    
Average Humidity 13    
Maximum Humidity 30    
Minimum Humidity 4    
Precipitation  
Precipitation 0.00 in 0.05 in - ()
Sea Level Pressure  
Sea Level Pressure 29.88 in    
Wind  
Wind Speed 6 mph ()    
Max Wind Speed 13 mph    
Max Gust Speed 22 mph    
Visibility 7.9 miles    
Events      
Averages and records for this station are not official NWS values.
T = Trace of Precipitation, MM = Missing Value Source: Averaged Metar Reports

Daily Weather History Graph

Daily Weather History Graph

Search for Another Location

Airport or City:

Trip Planner

Search our weather history database for the weather conditions in past years. The results will help you decide how hot, cold, wet, or windy it might be!

Date:

Astronomy

Feb. 06, 2013 Rise Set
Actual Time 6:16 AM ACST 7:20 PM ACST
Civil Twilight 5:52 AM ACST 7:44 PM ACST
Nautical Twilight 5:24 AM ACST 8:12 PM ACST
Astronomical Twilight 4:55 AM ACST 8:41 PM ACST
Moon 1:47 AM ACST (2/6) 3:35 PM ACST (2/6)
Length of Visible Light 13h 51m
Length of Day
13h 04m
Waning Crescent, 23% of the Moon is Illuminated
Feb 6
Waning Crescent
Feb 10
New
Feb 18
First Quarter
Feb 26
Full
Mar 5
Last Quarter

Hourly Weather History & Observations

Time (ACST) Temp. Dew Point Humidity Pressure Visibility Wind Dir Wind Speed Gust Speed Precip Events Conditions
12:00 AM 72 °F 31 °F 12% 29.88 in - North 4.6 mph - -  
12:00 AM 71.6 °F 30.2 °F 22% 29.98 in 6.2 mi North 4.6 mph - N/A   Unknown
12:30 AM 72 °F 30 °F 12% 29.87 in - NW 5.8 mph - -  
12:30 AM 71.6 °F 30.2 °F 22% 29.98 in 6.2 mi NW 5.8 mph - N/A   Unknown
1:00 AM 73.4 °F 30.2 °F 20% 29.98 in 6.2 mi North 4.6 mph - N/A   Unknown
1:30 AM 69.8 °F 30.2 °F 23% 29.95 in 6.2 mi West 4.6 mph - N/A   Unknown
2:00 AM 71.6 °F 28.4 °F 20% 29.95 in 6.2 mi NW 5.8 mph - N/A   Unknown
2:30 AM 68.0 °F 33.8 °F 28% 29.95 in 6.2 mi NW 5.8 mph - N/A   Unknown
3:00 AM 69 °F 29 °F 13% 29.83 in - NW 5.8 mph - -  
3:00 AM 69.8 °F 30.2 °F 23% 29.95 in 6.2 mi NW 5.8 mph - N/A   Unknown
3:30 AM 68 °F 31 °F 15% 29.83 in - NNW 5.8 mph - -  
3:30 AM 68.0 °F 32.0 °F 26% 29.95 in 6.2 mi NNW 5.8 mph - N/A   Unknown
4:00 AM 68.0 °F 30.2 °F 24% 29.95 in 6.2 mi North 3.5 mph - N/A   Unknown
4:30 AM 64.4 °F 32.0 °F 30% 29.95 in 6.2 mi North 4.6 mph - N/A   Unknown
5:00 AM 64.4 °F 32.0 °F 30% 29.95 in 6.2 mi WNW 5.8 mph - N/A   Unknown
5:30 AM 64.4 °F 30.2 °F 28% 29.95 in 6.2 mi WNW 5.8 mph - N/A   Unknown
6:00 AM 64 °F 30 °F 17% 29.86 in 19 mi WNW 6.9 mph - -   Partly Cloudy
6:00 AM 64.4 °F 30.2 °F 28% 29.95 in - WNW 6.9 mph - N/A   Clear
6:30 AM 64 °F 32 °F 19% 29.86 in - WNW 5.8 mph - -  
6:30 AM 64.4 °F 32.0 °F 30% 29.98 in - WNW 5.8 mph - N/A   Clear
7:00 AM 68.0 °F 30.2 °F 24% 29.98 in - WNW 5.8 mph - N/A   Clear
7:30 AM 75.2 °F 30.2 °F 19% 29.98 in - West 5.8 mph - N/A   Clear
8:00 AM 80.6 °F 32.0 °F 17% 29.98 in - West 3.5 mph - N/A   Clear
8:30 AM 84.2 °F 30.2 °F 14% 29.98 in - NNE 1.2 mph - N/A   Clear
9:00 AM 88 °F 28 °F 5% 29.88 in 19 mi ENE 10.4 mph - -   Partly Cloudy
9:00 AM 87.8 °F 28.4 °F 12% 29.98 in - ENE 10.4 mph - N/A   Clear
9:30 AM 90 °F 24 °F 4% 29.88 in - East 12.7 mph - -  
9:30 AM 89.6 °F 24.8 °F 10% 29.98 in - East 12.7 mph - N/A   Clear
10:00 AM 93.2 °F 26.6 °F 9% 29.98 in - East 10.4 mph - N/A   Clear
10:30 AM 93.2 °F 24.8 °F 9% 29.98 in - East 12.7 mph - N/A   Clear
11:00 AM 93.2 °F 24.8 °F 9% 29.95 in - SE 10.4 mph - N/A   Clear
11:30 AM 93.2 °F 26.6 °F 9% 29.95 in - East 9.2 mph - N/A   Clear
12:00 PM 95 °F 29 °F 4% 29.82 in 19 mi SSE 2.3 mph - -   Partly Cloudy
12:00 PM 95.0 °F 28.4 °F 9% 29.92 in - SSE 2.3 mph - N/A   Clear
12:30 PM 95 °F 21 °F 4% 29.80 in - NW 9.2 mph - -  
12:30 PM 95.0 °F 21.2 °F 7% 29.92 in - NW 9.2 mph - N/A   Clear
1:00 PM 96.8 °F 21.2 °F 7% 29.89 in - ESE 12.7 mph - N/A   Clear
1:30 PM 96.8 °F 19.4 °F 6% 29.86 in 6.2 mi SE 9.2 mph 21.9 mph N/A   Unknown
2:00 PM 100.4 °F 17.6 °F 5% 29.86 in - WSW 9.2 mph - N/A   Clear
2:30 PM 98.6 °F 21.2 °F 6% 29.86 in - WSW 9.2 mph - N/A   Clear
3:00 PM 98 °F 26 °F 4% 29.73 in 19 mi NNE 6.9 mph - -   Partly Cloudy
3:00 PM 98.6 °F 26.6 °F 8% 29.83 in - NNE 6.9 mph - N/A   Clear
3:30 PM 101 °F 24 °F 4% 29.72 in - ESE 8.1 mph - -  
3:30 PM 100.4 °F 24.8 °F 7% 29.83 in - ESE 8.1 mph - N/A   Clear
4:00 PM 98.6 °F 19.4 °F 6% 29.80 in - East 6.9 mph - N/A   Clear
4:30 PM 100.4 °F 15.8 °F 5% 29.80 in - SE 12.7 mph - N/A   Clear
5:00 PM 100.4 °F 14.0 °F 4% 29.80 in - South 11.5 mph - N/A   Clear
5:30 PM 100.4 °F 14.0 °F 4% 29.80 in 6.2 mi South 8.1 mph - N/A   Unknown
6:00 PM 99 °F 24 °F 4% 29.70 in - SSW 6.9 mph - -  
6:00 PM 98.6 °F 23.0 °F 7% 29.80 in 6.2 mi SSW 6.9 mph - N/A   Unknown
6:30 PM 98 °F 14 °F 4% 29.70 in - ESE 10.4 mph - -  
6:30 PM 98.6 °F 14.0 °F 5% 29.80 in 6.2 mi ESE 10.4 mph - N/A   Unknown
7:00 PM 95.0 °F 19.4 °F 6% 29.83 in 6.2 mi East 6.9 mph - N/A   Unknown
7:30 PM 91.4 °F 24.8 °F 9% 29.83 in 6.2 mi ESE 8.1 mph - N/A   Unknown
8:00 PM 89.6 °F 24.8 °F 10% 29.83 in 6.2 mi ESE 6.9 mph - N/A   Unknown
8:30 PM 84.2 °F 26.6 °F 12% 29.86 in 6.2 mi SE 8.1 mph - N/A   Unknown
9:00 PM 85 °F 24 °F 5% 29.75 in - SE 9.2 mph - -  
9:00 PM 84.2 °F 24.8 °F 11% 29.86 in 6.2 mi SE 9.2 mph - N/A   Unknown
9:30 PM 83 °F 27 °F 6% 29.75 in - SE 6.9 mph - -  
9:30 PM 82.4 °F 26.6 °F 13% 29.86 in 6.2 mi SE 6.9 mph - N/A   Unknown
10:00 PM 80.6 °F 28.4 °F 15% 29.86 in 6.2 mi ESE 4.6 mph - N/A   Unknown
10:30 PM 78.8 °F 35.6 °F 21% 29.86 in 6.2 mi North 5.8 mph - N/A   Unknown
11:00 PM 75.2 °F 28.4 °F 18% 29.89 in 6.2 mi North 2.3 mph - N/A   Unknown
11:30 PM 77.0 °F 30.2 °F 18% 29.89 in 6.2 mi Calm Calm - N/A   Unknown